Overview Statistics Trail Chart Weather Telemetry Raw packets
 

This is the latest recevied weather packets stored in our database for station/object N5JXS. If no packets are shown the sender has not sent any weather packets the latest 10 day(s).

<< 75 76 77 78 79 80 81 >>
Time Temp. Humidity Pressure Rain* Wind** Luminosity Snow
1788081966 15.56° C 66% 1025.3 hPa 0 mm - 0 W/m² -
1788081663 15.56° C 65% 1025.3 hPa 0 mm - 0 W/m² -
1788081358 15.56° C 65% 1025.3 hPa 0 mm - 0 W/m² -
1788081057 15.56° C 65% 1025.1 hPa 0 mm - 0 W/m² -
1788080752 15.56° C 64% 1025.3 hPa 0 mm - 0 W/m² -
1788080447 16.11° C 64% 1025.1 hPa 0 mm - 0 W/m² -
1788080141 16.11° C 63% 1025.2 hPa 0 mm - 0 W/m² -
1788079838 16.67° C 63% 1025.1 hPa 0 mm - 0 W/m² -
1788079533 16.67° C 61% 1025.1 hPa 0 mm - 0 W/m² -
1788079227 16.67° C 60% 1025 hPa 0 mm - 0 W/m² -
1788078923 17.22° C 59% 1024.8 hPa 0 mm - 0 W/m² -
1788078623 16.67° C 59% 1025.1 hPa 0 mm - 0 W/m² -
1788078318 16.67° C 60% 1024.8 hPa 0 mm - 0 W/m² -
1788078013 16.67° C 60% 1025.1 hPa 0 mm - 0 W/m² -
1788077709 16.67° C 61% 1025 hPa 0 mm - 0 W/m² -
1788077408 16.67° C 61% 1025.1 hPa 0 mm - 0 W/m² -
1788077104 16.67° C 61% 1024.8 hPa 0 mm - 0 W/m² -
1788076803 16.11° C 61% 1024.8 hPa 0 mm - 0 W/m² -
1788076498 16.11° C 62% 1025.1 hPa 0 mm - 0 W/m² -
1788076193 16.11° C 63% 1025.1 hPa 0 mm - 0 W/m² -
1788075889 16.11° C 62% 1025 hPa 0 mm - 0 W/m² -
1788075585 16.11° C 62% 1025.1 hPa 0 mm - 0 W/m² -
1788075280 16.11° C 62% 1025.2 hPa 0 mm - 0 W/m² -
1788074975 16.11° C 62% 1025.5 hPa 0 mm - 0 W/m² -
1788074671 16.11° C 61% 1025.3 hPa 0 mm - 0 W/m² -

* Rain latest hour (hover to see other rain measurements)
** Current wind speed in m/s (hover to see current wind gust speed)